{"data":{"norad_id":68697,"epoch":"2026-05-25T04:09:53.489664Z","epoch_age_seconds":66815,"freshness":"FRESH","line1":"1 68697U 26080G   26145.17353576  .00005146  00000+0  32071-3 0  9998","line2":"2 68697  97.6655 220.8268 0016704 141.2934 218.9495 15.09890149  6152","mean_motion":15.09890149,"eccentricity":0.0016704,"inclination_deg":97.6655,"raan_deg":220.8268,"arg_perigee_deg":141.2934,"mean_anomaly_deg":218.9495,"bstar":0.00032071,"rev_number":615,"period_min":95.371176568952,"perigee_km":524.98509544856,"apogee_km":548.08563288276,"semimajor_km":6914.6723641657,"source":"CELESTRAK","updated_at":"2026-05-25T13:38:08.024028Z"}}